Regional Weather Roundup
Issued by NWS

Home | Current Version | Previous Version | Graphics & Text | Print | Product List | Glossary On
Versions: 1 2 3 4 5 6 7 8 9 10 11 12 13 14 15 16 17 18 19 20 21 22 23 24 25 26 27 28 29 30 31 32 33 34 35 36 37 38 39 40 41 42 43 44 45 46 47 48 49 50
000
ASUS43 KDMX 242206
RWRIA

WEATHER ROUNDUP FOR IOWA
NATIONAL WEATHER SERVICE DES MOINES IA
500 PM CDT TUE APR 24 2018

NOTE: "FAIR" INDICATES FEW OR NO CLOUDS BELOW 12,000 FEET WITH NO
SIGNIFICANT WEATHER AND/OR OBSTRUCTIONS TO VISIBILITY.

* - THESE STATIONS ARE NOT NWS STATIONS...THUS NOT UNDER NWS
QUALITY CONTROL.  THEY ALSO DO NOT REPORT WEATHER SUCH
AS PRECIPITATION OR FOG.

IAZ001>003-012>014-020>022-031>034-043>046-242300-
   NORTHWEST IOWA

CITY           SKY/WX    TMP DP  RH WIND       PRES   REMARKS
CARROLL *      CLOUDY    72  45  37 N20G29    30.09R
CHEROKEE *     CLOUDY    55  41  58 N17G24    30.17S
DENISON *      PTSUNNY   64  43  45 N15G23    30.13R
LE MARS *      CLOUDY    54  43  66 N21G29    30.20R
ORANGE CITY *  LGT RAIN  48  46  93 NE12G18   30.21S
SHELDON *      CLOUDY    48  45  87 N16G22    30.19F
SIOUX CITY     LGT RAIN  59  43  55 N10       30.17S
SPENCER        CLOUDY    53  41  63 N21G26    30.19R
STORM LAKE *   CLOUDY    57  43  58 N22G28    30.16R
$$

IAZ055>058-069>071-079>083-090>094-242300-
   SOUTHWEST IOWA

CITY           SKY/WX    TMP DP  RH WIND       PRES   REMARKS
ATLANTIC *     PTSUNNY   72  34  25 N10       30.07S
AUDUBON *      CLOUDY    70  37  30 N9        30.09S
CLARINDA *     CLOUDY    75  32  20 N10G16    30.08S
COUNCIL BLFS * CLOUDY    63  43  48 NW18G29   30.12R
CRESTON *      CLOUDY    72  36  26 N10       30.07S
HARLAN  *      CLOUDY    68  41  37 NW26G36   30.12R
LAMONI         CLOUDY    74  37  26 N10       30.04F
RED OAK *      CLOUDY    70  41  35 NW22G32   30.08R
SHENANDOAH *   CLOUDY    72  43  35 NW22G35   30.08R
$$

IAZ047>049-059>061-072>074-084-242300-
   CENTRAL IOWA

CITY           SKY/WX    TMP DP  RH WIND       PRES   REMARKS
AMES           MOSUNNY   71  40  32 N13G24    30.07S
ANKENY *       PTSUNNY   72  41  33 N14G22    30.07S
BOONE *        MOSUNNY   68  41  37 N18       30.07S
CHARITON *     MOSUNNY   73  36  25 N14       30.04S
DES MOINES     PTSUNNY   73  39  29 N13       30.06R
GRINNELL*      MOSUNNY   73  32  22 NW12      30.05S
KNOXVILLE *    MOSUNNY   73  30  20 N13G21    30.03S
MARSHALLTOWN   PTSUNNY   69  44  40 N18       30.05R
NEWTON *       PTSUNNY   72  37  28 N13G18    30.05R
PELLA *        CLOUDY    75  31  19 N15       30.04S
PERRY *        FAIR      69  33  25 N14       30.08R
$$

IAZ004>006-015-016-023>025-035-036-242300-
   NORTH CENTRAL IOWA

CITY           SKY/WX    TMP DP  RH WIND       PRES   REMARKS
ALGONA *       PTSUNNY   57  45  62 N22       30.15R
CLARION *      CLOUDY    63  48  59 N18G24    30.11S
ESTHERVILLE    CLOUDY    50  42  74 N20       30.17S
FORT DODGE *   CLOUDY    64  45  49 N14       30.12R
MASON CITY     CLOUDY    66  47  50 N17       30.11R
FOREST CITY *  FAIR      63  45  51 N15G23    30.12S
WEBSTER CITY * MOSUNNY   66  43  42 N18       30.08S
IOWA FALLS *   FAIR      67  48  51 NW18      30.09S
$$

IAZ007>011-017>019-026>030-037>042-050>054-066-242300-
   NORTHEAST IOWA

CITY           SKY/WX    TMP DP  RH WIND       PRES   REMARKS
CEDAR RAPIDS   FAIR      75  31  19 NW13G18   30.00S
CHARLES CITY * PTSUNNY   64  45  48 NW18      30.08R
CLINTON *      FAIR      74  32  21 N13       29.99S
DECORAH *      CLOUDY    68  37  32 N14       30.03R
DUBUQUE        PTSUNNY   70  32  24 NW12      30.00S
MONTICELLO *   FAIR      75  32  20 N10G17    30.00S
OELWEIN *      PTSUNNY   70  41  35 N14       30.04R
WATERLOO       FAIR      68  41  37 N14       30.04S
$$

IAZ064-065-067-068-078-242300-
   EAST CENTRAL IOWA

CITY           SKY/WX    TMP DP  RH WIND       PRES   REMARKS
DAVENPORT      FAIR      75  24  15 NW15      30.00S
IOWA CITY      FAIR      74  30  19 N14       30.01S
MT. PLEASANT * MOSUNNY   73  25  16 N15G23    30.00S
MUSCATINE *    FAIR      75  25  15 NW12      29.99S
QUAD CITIES    FAIR      74  30  19 N6        29.97S
$$

IAZ062-063-075>077-085>089-095>099-242300-
   SOUTHEAST IOWA

CITY           SKY/WX    TMP DP  RH WIND       PRES   REMARKS
BURLINGTON     PTSUNNY   74  27  17 N10       29.98F
FAIRFIELD *    MOSUNNY   75  27  16 N13G22    30.01R
FORT MADISON * MOSUNNY   73  30  20 N15G23    30.00S
KEOKUK *       MOSUNNY   72  30  21 NW10      29.99S
OSKALOOSA *    FAIR      75  28  17 N17       30.02F
CENTERVILLE *  FAIR      73  28  19 N8        30.05S
OTTUMWA        SUNNY     74  33  22 N12       30.02S
WASHINGTON *   MOSUNNY   73  30  20 NW10G17   30.01F
$$

ABBREVIATIONS USED IN REMARKS
   TC - TEMPERATURES IN CELSIUS
  WCI - WIND CHILL INDEX
   HX - HEAT INDEX
  VSB - VISIBILITY
$$





USA.gov is the U.S. government's official web portal to all federal, state and local government web resources and services.